Flag for United Arab Emirates Weather past 2 weeks in Ras al-Khaimah, Ras al-Khaimah, United Arab Emirates

Now
81 °F

Haze.


Feels Like: 86 °F
Forecast: 82 / 104 °F
Wind: 6 mph from Southwest

Location: Ras Al Khaimah International Airport

Current Time: Sep 18, 2014 at 6:49:15 AM

Latest Report: Sep 18, 2014 at 6:00 AM


Visibility: 3 mi

Pressure: 29.68 "Hg

Humidity: 84%

Dew point: 75 °F

Location of Ras al-KhaimahLocation

Historic Weather in Ras al-Khaimah — Graph

°F

Ras al-Khaimah temperature yesterday

Maximum temperature yesterday: 106 °F (at 1:00 PM)
Minimum temperature yesterday: 84 °F (at 4:00 AM)
Average temperature yesterday: 93 °F

Past Weeks' High & Low Weather Summary

 TemperatureHumidityPressure
High111 °F (Sep 3, 2:00 PM)89% (Sep 11, 4:00 AM)29.71 "Hg (Sep 11, 4:00 AM)
Low75 °F (Sep 6, 6:00 AM)8% (Sep 4, 10:00 AM)29.47 "Hg (Sep 5, 2:00 PM)
Average92 °F50%29.59 "Hg
* Reported Sep 3 5:00 AM — Sep 18 5:00 AM, Ras al-Khaimah, Weather by CustomWeather, © 2014

Note: Actual official high and low records may vary slightly from our data, if they occured in-between our weather recording intervals... More about our weather records

Advertising

Ras al-Khaimah weather history for previous 24 hours

 ConditionsComfort  
Time TempWeatherWind HumidityBarometerVisibility
5:00 AM
Sep 18
79 °FClear.2 mph79%29.65 "Hg4 mi
4:00 AM81 °FClear.No wind74%29.62 "Hg5 mi
3:00 AM81 °FClear.3 mph74%29.62 "Hg5 mi
2:00 AM82 °FClear.No wind70%29.62 "Hg5 mi
1:00 AM84 °FClear.2 mph70%29.62 "Hg5 mi
12:00 AM84 °FWarm.3 mph70%29.65 "Hg5 mi
11:00 PM
Sep 17
84 °FClear.2 mph70%29.65 "Hg10 mi
10:00 PM88 °FClear.No wind62%29.65 "Hg10 mi
9:00 PM88 °FClear.No wind66%29.65 "Hg10 mi
8:00 PM91 °FClear.3 mph59%29.62 "Hg10 mi
7:00 PM93 °FClear.5 mph56%29.62 "Hg10 mi
6:00 PM95 °FSunny.8 mph50%29.62 "Hg10 mi
5:00 PM97 °FSunny.12 mph47%29.59 "Hg10 mi
4:00 PM97 °FSunny.13 mph47%29.59 "Hg10 mi
3:00 PM99 °FSunny.14 mph39%29.59 "Hg10 mi
2:00 PM102 °FClear.14 mph35%29.59 "Hg4 mi
1:00 PM106 °FSunny.6 mph23%29.62 "Hg10 mi
12:00 PM104 °FSunny.7 mph28%29.65 "Hg10 mi
11:00 AM100 °FSunny.10 mph31%29.65 "Hg10 mi
10:00 AM99 °FSunny.12 mph33%29.68 "Hg10 mi
9:00 AM97 °FSunny.10 mph39%29.68 "Hg10 mi
8:00 AM93 °FSunny.9 mph49%29.68 "Hg10 mi
7:00 AM88 °FSunny.6 mph62%29.65 "Hg10 mi
6:00 AM86 °FClear.3 mph66%29.62 "Hg10 mi
Weather by CustomWeather, © 2014

See weather overviewHow to use our weather pages